User: anonymous   Login
Location: Columbia
(38.9520°N, 92.3340°W)
Time: 19:51:48
(UTC-05:00)
Language:

SL-08 RB Rocket - Orbit

View from above orbital plane
View from above orbital plane
View from above satellite
View from above satellite

Ground track
Ground track

The orbit data is extracted from the following two-line orbital elements,

1 26387U 00033D   16209.27834804  .00000090  00000-0  24065-4 0  9996
2 26387  98.0149 275.0693 0025203 290.3530 109.4604 14.68171657860201
Epoch (UTC): 27 July 2016 06:40:49
Eccentricity: 0.0025203
inclination: 98.0149°
perigee height: 649 km
apogee height: 684 km
right ascension of ascending node: 275.0693°
argument of perigee: 290.3530°
revolutions per day: 14.68171657
mean anomaly at epoch: 109.4604°
orbit number at epoch: 86020

The dashed part of the orbit path shows where the satellite is in the earth's shadow,  

DLR